DW4596 Weather Reports


time (UTC)temp
C
wind
direction
speed
KPH
gust
KPH
rain 1hr
cm
rain 24hr
cm
rain mn
cm
humidity
%
barometer
mb
20260507060037 5 221 11.3 0.0 0.00 0.00 0.03 70 1009.1
20260507054636 5 257 14.5 0.0 0.00 0.00 0.03 69 1009.2
20260507053105 5 238 12.9 0.0 0.00 0.00 0.03 69 1009.2
20260507051542 5 252 11.3 0.0 0.00 0.00 0.03 70 1009.2
20260507050037 6 209 14.5 0.0 0.00 0.00 0.03 70 1009.1
20260507044634 5 246 12.9 0.0 0.00 0.00 0.03 81 1009.1
20260507043036 5 256 14.5 0.0 0.00 0.00 0.03 83 1009.0
20260507041532 6 221 12.9 0.0 0.00 0.00 0.03 81 1008.9
20260507040031 6 197 14.5 0.0 0.00 0.00 0.03 81 1008.6
20260507034631 6 192 14.5 0.0 0.00 0.00 0.03 82 1008.7
20260507033039 6 205 14.5 0.0 0.00 0.00 0.03 82 1008.8
20260507031529 6 219 12.9 0.0 0.00 0.00 0.03 83 1008.8
20260507030029 6 218 11.3 0.0 0.00 0.00 0.03 83 1008.9
20260507024629 6 210 16.1 0.0 0.00 0.00 0.03 83 1008.9
20260507023036 6 206 16.1 0.0 0.00 0.00 0.03 83 1009.0
20260507021533 6 214 16.1 0.0 0.00 0.00 0.03 83 1009.1
20260507020031 6 214 17.7 0.0 0.00 0.00 0.03 83 1009.2
20260507014629 6 208 9.7 0.0 0.00 0.00 0.03 82 1009.1
20260507013029 6 198 12.9 0.0 0.00 0.00 0.03 82 1009.2
20260507011534 6 209 17.7 0.0 0.00 0.00 0.03 83 1009.3
20260507010027 6 197 12.9 0.0 0.00 0.00 0.03 83 1009.1
20260507004625 6 218 14.5 0.0 0.00 0.00 0.03 84 1009.0
20260507003026 6 197 14.5 0.0 0.00 0.00 0.03 84 1009.0
20260507001524 6 209 16.1 0.0 0.00 0.00 0.03 84 1008.8
20260507000022 7 238 11.3 0.0 0.00 0.00 0.00 84 1008.6
20260506234620 7 212 8.0 0.0 0.00 0.00 0.00 84 1008.2
20260506233022 7 230 8.0 0.0 0.00 0.00 0.00 84 1008.2
20260506231520 7 228 9.7 0.0 0.00 0.00 0.00 84 1008.1
20260506230019 7 333 12.9 0.0 0.00 0.00 0.00 84 1008.1
20260506224619 7 236 12.9 0.0 0.00 0.00 0.00 84 1008.1
20260506223019 7 333 12.9 0.0 0.00 0.00 0.00 84 1008.1
20260506221518 7 240 9.7 0.0 0.00 0.00 0.00 83 1008.1
20260506220030 7 211 6.4 0.0 0.00 0.00 0.00 82 1008.1
20260506214617 7 200 4.8 0.0 0.00 0.00 0.00 83 1007.9
20260506213028 7 211 4.8 0.0 0.00 0.00 0.00 83 1007.9
20260506211521 7 333 6.4 0.0 0.00 0.00 0.00 83 1007.8
20260506210023 7 182 4.8 0.0 0.00 0.00 0.00 83 1007.7
20260506204622 7 333 1.6 0.0 0.00 0.00 0.00 84 1007.9
20260506203028 7 333 1.6 0.0 0.00 0.00 0.00 84 1007.8
20260506201523 7 51 0.0 0.0 0.00 0.00 0.00 84 1007.8
20260506200023 7 51 1.6 0.0 0.00 0.00 0.00 84 1007.8
20260506194622 7 76 6.4 0.0 0.00 0.00 0.00 84 1007.7
20260506193019 7 73 4.8 0.0 0.00 0.00 0.00 84 1007.7
20260506191517 7 24 0.0 0.0 0.00 0.00 0.00 84 1007.9
20260506190023 6 25 3.2 0.0 0.00 0.00 0.00 84 1008.0
20260506184614 6 24 6.4 0.0 0.00 0.00 0.00 83 1007.8
20260506183015 6 359 8.0 0.0 0.00 0.00 0.00 83 1007.9
20260506181516 6 346 8.0 0.0 0.00 0.00 0.00 82 1007.9
20260506180013 6 17 8.0 0.0 0.00 0.00 0.00 82 1007.8
20260506174613 6 38 8.0 0.0 0.00 0.00 0.00 81 1007.7
20260506173013 6 356 8.0 0.0 0.00 0.00 0.00 81 1007.6
20260506171517 6 356 6.4 0.0 0.00 0.00 0.00 80 1007.5
20260506170011 6 3 6.4 0.0 0.00 0.00 0.00 79 1007.5
20260506164610 6 69 8.0 0.0 0.00 0.00 0.00 78 1007.6
20260506163016 6 42 9.7 0.0 0.00 0.00 0.00 78 1007.7
20260506161514 6 16 11.3 0.0 0.00 0.00 0.00 76 1007.8
20260506160014 6 7 11.3 0.0 0.00 0.00 3.10 76 1008.0
20260506154614 5 352 9.7 0.0 0.00 0.00 3.07 73 1008.2
20260506153011 5 346 11.3 0.0 0.00 0.00 3.07 72 1008.1
20260506151509 5 352 11.3 0.0 0.00 0.00 3.05 72 1008.0
20260506150008 5 13 9.7 0.0 0.00 0.00 3.02 71 1007.9
20260506144610 5 357 8.0 0.0 0.00 0.00 2.97 71 1007.8
20260506143009 6 352 8.0 0.0 0.00 0.00 2.97 70 1007.8
20260506141508 5 19 8.0 0.0 0.00 0.00 2.92 70 1007.9
20260506140009 5 19 6.4 0.0 0.00 0.00 2.87 70 1008.0
20260506134607 5 17 6.4 0.0 0.00 0.00 2.84 72 1007.8
20260506133010 5 26 8.0 0.0 0.00 0.00 2.82 72 1007.7
20260506131509 5 15 6.4 0.0 0.00 0.00 2.79 71 1007.9
20260506130013 5 17 6.4 0.0 0.00 0.00 2.74 72 1008.0
20260506124610 5 23 4.8 0.0 0.00 0.00 2.67 72 1007.8
20260506123009 5 28 6.4 0.0 0.00 0.00 2.67 73 1007.8
20260506121508 5 38 4.8 0.0 0.00 0.00 2.62 73 1007.9
20260506120020 5 27 4.8 0.0 0.00 0.00 2.59 73 1007.9
20260506114609 5 36 3.2 0.0 0.00 0.00 2.51 74 1008.0
20260506113010 5 30 4.8 0.0 0.00 0.00 2.51 74 1008.1
20260506111509 5 7 6.4 0.0 0.00 0.00 2.46 74 1008.3
20260506110012 5 13 8.0 0.0 0.00 0.00 2.41 73 1008.1
20260506104606 5 5 3.2 0.0 0.00 0.00 2.34 73 1008.1
20260506103010 5 5 4.8 0.0 0.00 0.00 2.31 73 1007.9
20260506101510 5 333 4.8 0.0 0.00 0.00 2.26 74 1008.2
20260506100006 6 349 4.8 0.0 0.00 0.00 2.21 74 1008.0
20260506094615 6 348 3.2 0.0 0.00 0.00 2.08 73 1007.9
20260506093007 6 348 1.6 0.0 0.00 0.00 2.08 73 1007.8
20260506091508 6 346 4.8 0.0 0.00 0.00 2.03 74 1007.6
20260506090014 6 328 4.8 0.0 0.00 0.00 1.98 74 1007.7
20260506084604 6 338 4.8 0.0 0.00 0.00 1.88 74 1008.1
20260506083005 6 173 3.2 0.0 0.00 0.00 1.88 74 1008.1
20260506081504 6 151 6.4 0.0 0.00 0.00 1.83 74 1008.0
20260506073004 6 177 4.8 0.0 0.00 0.00 1.73 75 1007.8
20260506071504 6 167 9.7 0.0 0.00 0.00 1.70 75 1007.6
20260506061502 6 162 4.8 0.0 0.00 0.00 1.42 77 1007.9